星链-35784(STARLINK-35784)
导读
STARLINK-35784是美国于2025年12月14日发射的星链卫星,隶属于SpaceX公司构建的星链星座。星链星座旨在为全球提供低延迟、高速率的宽带互联网服务,该卫星延续星链项目标准设计,承担覆盖补网或星座扩容任务,进一步完善星链全球通信网络布局,服务地面各类用户的互联网接入需求。
Basic Information
目录编号:
67093
目录名称:
STARLINK-35784
国际标识:
2025-298U
轨道中心:
EARTH
卫星名称:
星链-35784
卫星全名:
星链-35784(STARLINK-35784)
卫星状态:
在轨 (已飞行265 天)
发射日期:
2025-12-14 UTC
国别 :
美国
(US)
星等 :
--
Orbit Information
| 数据来源 | 国际轨道数据 |
| 星历时间: | 2026-09-04T10:20:26+0800 1天前 查看轨道信息 |
| 半长轴: | 6950.191km |
| 偏心率: | 0.0003924 |
| 轨道倾角: | 70.000° |
| 近地点辐角 | 268.591° |
| 升交点赤经 | 284.531° |
| 平近点角 | 91.480° |
| 近地点: | 569.326km |
| 远地点: | 574.782km |
| 周期: | 96.107分钟 |
| 每日圈数: | 14.983309 |
Detailed Information
固有亮度:
5
最大亮度:
2.5
卫星平台:
Starlink V1.0
覆盖范围:
全球
运营商:
太空探索技术公司
运营商所在国:
美国
制造商(研发单位):
太空探索技术公司
制造商所在国:
美国
使用方式:
暂无
Satellite Introduction
Starlink 计划是 SpaceX 推出的全球卫星互联网项目,通过发射低轨道卫星,为全球尤其是偏远地区提供高速、低延迟的互联网服务。自 2019 年起,Starlink 已部署数千颗卫星,旨在缩小全球数字鸿沟,推动互联网普及。该项目还为军事、航空等行业提供通信支持,带来广泛经济效益。
2D Orbit Map
3D Orbit Map
Orbit Altitude Analysis Chart
Orbit Inclination Analysis Chart
Orbit Comprehensive Analysis Chart
View Comprehensive ChartConjunction Data List
| Event ID | Objects | TCA | Miss Dist (km) | Collision Risk Probability | Collision Risk Index (CRI) | Action |
|---|---|---|---|---|---|---|
| CDM_260906-171006-324806-709322 |
LEMUR 2 LIA-MARTIN
(63248)
STARLINK-35784
(67093) | 2026-09-06T 17:10:54+0000 |
0.990 km
远距离 | 2.71638E-5 中风险 | 0.64 | |
| CDM_260906-211106-324806-709322 |
LEMUR 2 LIA-MARTIN
(63248)
STARLINK-35784
(67093) | 2026-09-06T 21:11:18+0000 |
1.919 km
极远距离 | 3.080224E-6 低风险 | 0.45 | |
| CDM_260906-184706-324806-709322 |
LEMUR 2 LIA-MARTIN
(63248)
STARLINK-35784
(67093) | 2026-09-06T 18:47:04+0000 |
2.095 km
极远距离 | 2.470059E-6 低风险 | 0.43 | |
| CDM_260905-184204-914306-709322 |
STARLINK-3109
(49143)
STARLINK-35784
(67093) | 2026-09-05T 18:42:00+0000 |
2.297 km
极远距离 | 1.710008E-6 低风险 | 0.4 | |
| CDM_260906-063704-389006-709322 |
GRUS-1A
(43890)
STARLINK-35784
(67093) | 2026-09-06T 06:37:40+0000 |
2.624 km
极远距离 | 1.62493E-6 低风险 | 0.39 | |
| CDM_260906-193506-324806-709322 |
LEMUR 2 LIA-MARTIN
(63248)
STARLINK-35784
(67093) | 2026-09-06T 19:35:09+0000 |
2.586 km
极远距离 | 1.6047E-6 低风险 | 0.39 |

